[[{"header":{"parameterUnit":"m.s-1","parameterCategory":1,"la1":30.2992,"la2":30.254,"lo1":-89.0895,"lo2":-89.0443,"dy":0.0025,"dx":0.0025,"nx":19,"ny":19,"refTime":"2026-04-29T03:00:00:Z","depth":0,"parameterNumber":2,"parameterNumberName":"U-component_of_WINDS"},"data":[0,0,0,-3.7186,-3.7187,-3.7188,-3.7188,-3.723,-3.7231,0,0,0,0,0,0,0,0,0,0,0,-3.7211,-3.7212,-3.7186,-3.7187,-3.7188,-3.7188,-3.723,-3.7231,0,0,0,0,0,0,0,0,0,0,0,-3.721,-3.7212,-3.7213,-3.7187,-3.7188,-3.7188,-3.723,-3.7214,0,0,0,0,0,0,0,0,0,0,-3.7206,-3.7253,-3.7211,-3.7213,-3.7187,-3.7188,-3.7188,-3.7213,-3.7215,-3.7247,0,-3.7282,0,-3.7257,-3.7236,-3.7236,0,0,0,-3.7168,-3.7252,-3.7229,-3.7213,-3.7187,-3.7188,-3.7182,-3.7214,-3.7217,-3.7251,-3.7282,-3.7282,-3.7258,-3.7237,-3.7237,-3.7481,-3.7483,0,0,-3.7168,-3.7225,-3.7228,-3.7232,-3.7235,-3.7182,-3.7183,-3.7215,-3.7253,-3.7282,-3.7283,-3.7259,-3.7237,-3.7238,-3.7479,-3.7481,0,0,0,-3.7181,-3.7226,-3.7201,-3.7232,-3.7229,-3.7183,-3.7183,-3.7252,-3.7239,-3.7283,-3.7259,-3.7238,-3.7239,-3.7476,-3.748,-3.7633,0,0,0,-3.718,-3.7232,-3.7202,-3.7237,-3.7229,-3.724,-3.722,-3.7237,-3.7239,-3.7259,-3.7238,-3.724,-3.7474,-3.7478,-3.7624,-3.7697,0,0,0,-3.7202,-3.7235,-3.7243,-3.724,-3.7242,-3.7238,-3.7227,-3.7236,-3.7225,-3.7237,-3.724,-3.7473,-3.7477,-3.7616,-3.7683,-3.7777,0,0,0,-3.7243,-3.7381,-3.7247,-3.7391,-3.7243,-3.7333,-3.7226,-3.7291,-3.7319,-3.7238,-3.7474,-3.7479,-3.7613,-3.7675,-3.7769,-3.7866,-3.7912,0,0,-3.7448,-3.7407,-3.7488,-3.7368,-3.7497,-3.7328,-3.7479,-3.7452,-3.7402,-3.7457,-3.7462,-3.7627,-3.7682,-3.7775,-3.8149,-3.8186,0,0,0,-3.7572,-3.763,-3.7652,-3.7681,-3.7663,-3.7653,-3.7597,-3.7586,-3.763,-3.7442,-3.7684,-3.7715,-3.7767,-3.7812,-3.7843,-3.7884,-3.7502,-3.7501,-3.7501,-3.7944,-3.7871,-3.7999,-3.7927,-3.7956,-3.7896,-3.7913,-3.7888,-3.7807,-3.7866,-3.7882,-3.8117,-3.8171,-3.8194,-3.8238,-3.7927,-3.7928,-3.7928,-3.7929,-3.8239,-3.831,-3.8197,-3.8281,-3.8203,-3.8273,-3.8219,-3.816,-3.8213,-3.8099,-3.8142,-3.8025,-3.8237,-3.8272,-3.7939,-3.7938,-3.7936,-3.7935,-3.7934,-3.8475,-3.8497,-3.8481,-3.8514,-3.8547,-3.8468,-3.8525,-3.8451,-3.8383,-3.8425,-3.8434,-3.8432,-3.842,-3.8435,-3.8435,-3.8436,-3.8437,-3.8437,-3.8438,-3.8727,-3.8704,-3.876,-3.8751,-3.8759,-3.8761,-3.87,-3.8706,-3.8694,-3.8636,-3.8636,-3.855,-3.8271,-3.8203,-3.845,-3.8448,-3.8447,-3.8445,-3.8445,-3.9054,-3.8968,-3.9055,-3.9063,-3.9045,-3.9084,-3.8989,-3.9007,-3.9001,-3.9031,-3.8935,-3.8741,-3.8694,-3.8669,-3.8612,-3.895,-3.895,-3.895,-3.895,-3.9255,-3.9223,-3.9294,-3.9312,-3.932,-3.9243,-3.9343,-3.9297,-3.9236,-3.9228,-3.9168,-3.9086,-3.9063,-3.903,-3.8996,-3.8942,-3.9357,-3.9357,-3.9358,-3.9452,-3.9417,-3.9517,-3.9454,-3.9434,-3.9419,-3.9511,-3.9536,-3.9448,-3.9373,-3.922,-3.9202,-3.9069,-3.9029,-3.8952,-3.8902,-3.8801,0,0]},{"header":{"parameterUnit":"m.s-1","parameterCategory":1,"la1":30.2992,"la2":30.254,"lo1":-89.0895,"lo2":-89.0443,"dy":0.0025,"dx":0.0025,"nx":19,"ny":19,"refTime":"2026-04-29T03:00:00:Z","depth":0,"parameterNumber":3,"parameterNumberName":"V-component_of_WINDS"},"data":[0,0,0,-0.3471,-0.3474,-0.3651,-0.3652,-0.384,-0.3841,0,0,0,0,0,0,0,0,0,0,0,-0.3396,-0.3396,-0.347,-0.3474,-0.3651,-0.3652,-0.3839,-0.3841,0,0,0,0,0,0,0,0,0,0,0,-0.3395,-0.3396,-0.3397,-0.3475,-0.365,-0.3652,-0.3839,-0.3719,0,0,0,0,0,0,0,0,0,0,-0.3554,-0.3463,-0.3396,-0.3397,-0.3476,-0.365,-0.3652,-0.3714,-0.3727,-0.3743,0,-0.3752,0,-0.3799,-0.3851,-0.3852,0,0,0,-0.3491,-0.3452,-0.352,-0.3397,-0.3477,-0.365,-0.3576,-0.3722,-0.3736,-0.376,-0.3755,-0.3763,-0.3802,-0.3852,-0.3853,-0.3891,-0.3891,0,0,-0.3482,-0.3415,-0.351,-0.3528,-0.3499,-0.357,-0.3581,-0.3731,-0.3721,-0.3756,-0.3768,-0.3805,-0.3853,-0.3854,-0.3892,-0.3891,0,0,0,-0.3442,-0.3407,-0.3473,-0.3519,-0.3554,-0.3575,-0.3588,-0.3715,-0.3742,-0.3771,-0.3808,-0.3854,-0.3856,-0.3893,-0.3892,-0.3796,0,0,0,-0.3437,-0.3385,-0.3468,-0.3429,-0.355,-0.3637,-0.3567,-0.3731,-0.375,-0.3807,-0.3854,-0.3857,-0.3894,-0.3892,-0.38,-0.3761,0,0,0,-0.3392,-0.338,-0.3397,-0.3425,-0.3499,-0.3636,-0.3672,-0.3737,-0.3772,-0.3852,-0.3858,-0.3894,-0.3892,-0.3804,-0.3768,-0.3751,0,0,0,-0.3324,-0.331,-0.3395,-0.3393,-0.3496,-0.3575,-0.3672,-0.3734,-0.3791,-0.3855,-0.3893,-0.3892,-0.3805,-0.3772,-0.3754,-0.3724,-0.3705,0,0,-0.3269,-0.3301,-0.3305,-0.3386,-0.3432,-0.3553,-0.3586,-0.3702,-0.377,-0.3847,-0.3849,-0.3798,-0.3768,-0.3752,-0.3626,-0.361,0,0,0,-0.3265,-0.3267,-0.3294,-0.3345,-0.3432,-0.3504,-0.3621,-0.3664,-0.3732,-0.3796,-0.3791,-0.3775,-0.3768,-0.3756,-0.3743,-0.3741,-0.3884,-0.3884,-0.3884,-0.3091,-0.3179,-0.3192,-0.3301,-0.3349,-0.3469,-0.3516,-0.3595,-0.367,-0.3667,-0.369,-0.3603,-0.3587,-0.3578,-0.3574,-0.3682,-0.3682,-0.3681,-0.3681,-0.3018,-0.3034,-0.3134,-0.3181,-0.3274,-0.3316,-0.3431,-0.3483,-0.3534,-0.3593,-0.3592,-0.3647,-0.3558,-0.356,-0.3675,-0.3676,-0.3677,-0.3677,-0.3678,-0.2913,-0.2936,-0.2988,-0.3069,-0.3122,-0.3234,-0.3278,-0.3362,-0.3441,-0.3439,-0.3472,-0.3474,-0.3485,-0.3449,-0.3449,-0.3449,-0.3448,-0.3448,-0.3448,-0.2783,-0.2845,-0.2872,-0.2962,-0.3005,-0.3073,-0.3193,-0.3238,-0.3309,-0.3366,-0.3367,-0.3441,-0.3533,-0.3554,-0.3444,-0.3445,-0.3445,-0.3445,-0.3446,-0.2674,-0.2712,-0.2753,-0.2796,-0.2909,-0.2955,-0.3061,-0.3145,-0.3194,-0.3213,-0.3289,-0.3343,-0.3382,-0.3393,-0.341,-0.327,-0.327,-0.327,-0.327,-0.2585,-0.2612,-0.2673,-0.2736,-0.2807,-0.2907,-0.295,-0.3043,-0.3145,-0.3181,-0.3214,-0.3244,-0.3252,-0.3286,-0.33,-0.3317,-0.3157,-0.3157,-0.3157,-0.2522,-0.256,-0.2581,-0.2681,-0.2775,-0.2854,-0.2897,-0.2964,-0.3089,-0.3154,-0.321,-0.3215,-0.3266,-0.3278,-0.3343,-0.3362,-0.3396,0,0]}]]